Torna al catalogo

COSMOS 839 DEB

AttivoUNKNOWN
NORAD 10619·DEBRIS·🇷🇺 Russia

Lanciato Jul 8, 1976 da Plesetsk Cosmodrome

Loading…

Prossimi Passaggi (prossime 24 ore)

TLE

AggiornatoSource: Space-Track

Epoca: Sep 13, 2026, 22:03 UTC

1 10619U 76067AT  26256.91893422 -.00000063  00000-0 -29848-4 0  9998
2 10619  65.8283  76.3085 0670500 324.5593 144.3054 12.33185442259278

Traccia COSMOS 839 DEB in tempo reale con AllMySat

Download on the App Store